Location: Abliwn
(31.2080°N, 8.9159°W)
Time: 09:48:20
(UTC+00:00)

Daily predictions for brighter satellites

Satellite Brightness Start Highest point End
(mag) Time Altitude Azimuth Time Altitude Azimuth Time Altitude Azimuth
Centaur D AC-29 4.1 16:40:14 10° WSW 16:46:19 63° SSE 17:46:41 10° E
Centaur D AC-29 4.1 16:40:15 10° WSW 16:46:20 63° SSE 17:46:42 10° E
NOSS 3-1 (A) 4.3 18:03:18 10° NNW 18:11:18 68° ENE 18:20:12 10° SE
Hubble Space Telescope 1.8 18:10:20 10° W 18:14:15 43° SSW 18:18:10 10° ESE
SMAP 3.1 18:11:10 10° SSE 18:15:48 88° W 18:20:29 10° NNW
Cosmos 1110 Rocket 4.1 18:14:51 10° SSW 18:20:08 88° WNW 18:25:23 10° NNE
Cosmos 2058 Rocket 4.0 18:17:56 10° SSE 18:21:43 28° E 18:25:31 10° NNE
OAO 2 Rocket 3.7 18:16:56 10° SW 18:21:45 50° SSE 18:26:31 10° E
Cosmos 1703 3.2 18:18:03 10° N 18:22:00 85° E 18:25:57 10° S
Cosmos 1602 Rocket 4.1 18:18:10 10° NNW 18:22:37 67° W 18:27:00 10° S
Cosmos 1302 Rocket 4.5 18:18:12 10° S 18:23:02 40° E 18:27:55 10° NNE
FALCON 9 DEB 3.8 18:21:46 10° WSW 18:24:53 49° NW 18:28:00 10° NNE
ASC 2 Rocket 4.4 18:21:15 10° WSW 18:25:08 34° S 18:30:04 10° ESE
Cosmos 1300 2.8 18:22:24 10° S 18:26:06 52° E 18:29:49 10° NNE
COSMOS 2487 2.6 18:24:42 10° N 18:28:03 48° ENE 18:31:21 10° SSE
Delta 142 4.2 18:23:38 10° WSW 18:28:13 61° S 18:33:58 11° E
Cosmos 1697 Rocket 4.1 18:25:56 10° SE 18:29:12 16° E 18:32:29 10° ENE
Cosmos 1953 Rocket 4.3 18:27:07 10° NNE 18:31:04 31° E 18:35:01 10° SE
Helios 1A Rocket 3.9 18:30:37 10° SE 18:34:05 26° ENE 18:37:32 10° NNE
FengYun 1-2 T 4.3 18:28:30 10° SSE 18:34:09 82° ENE 18:39:49 10° N
NOAA 11 4.1 18:30:00 10° SSE 18:35:25 74° ENE 18:40:51 10° N
Cosmos 1741 Rocket 3.9 18:30:32 10° NNW 18:35:46 76° ENE 18:40:58 10° SSE
Meteor 1-11 4.2 18:31:52 10° N 18:37:35 69° E 18:43:19 10° SSE
Feng Yun 1-1 Rocket 4.4 18:33:53 10° SSE 18:39:40 68° ENE 18:45:32 10° N
Cosmos 1939 Rocket 3.0 18:37:48 10° SSE 18:41:42 50° ENE 18:45:33 10° N
USA 276 2.1 18:41:09 10° NW 18:44:20 86° SW 18:47:30 10° SE
Milstar 3 3.0 18:39:18 10° WSW 18:46:23 64° S 18:51:54 16° E
Okean O Rocket 3.6 18:46:06 10° SSW 18:50:02 33° W 18:53:58 10° NW
PSLV R/B 4.0 18:46:42 10° N 18:50:52 81° WNW 18:54:59 10° SSW
Cosmos 1689 Rocket 3.1 18:49:40 10° N 18:52:26 45° WNW 18:55:11 10° SSW
Cosmos 1850 Rocket 4.4 18:47:35 10° NNW 18:52:52 69° WSW 18:58:09 10° S
COSMO-SKYMED 1 3.2 18:50:43 10° N 18:54:59 59° WNW 18:59:15 10° SSW
H-2A R/B 3.1 18:51:43 10° ESE 18:55:58 25° ENE 19:00:17 10° NNE
Cosmos 2297 Rocket 3.3 18:52:31 10° NNE 18:56:46 21° ENE 18:57:46 20° ENE
CZ-4 R/B 1.6 18:55:51 10° SE 18:59:34 41° ENE 19:03:15 10° N
Aureole 3 Rocket 2.5 18:57:26 10° S 19:00:40 85° E 19:04:47 10° N
IRS-1C Rocket 4.0 18:56:12 10° SSE 19:01:28 87° ENE 19:06:45 10° NNW
MOS 1 Rocket 3.6 18:58:52 10° NNE 19:03:24 45° E 19:08:11 10° S
YAOGAN 1 2.9 19:00:21 10° SE 19:04:24 41° ENE 19:08:28 10° N
Cosmos 1340 3.2 19:02:08 10° NNE 19:05:35 34° E 19:05:57 33° E
Cosmos 1992 Rocket 4.4 19:01:07 10° SSE 19:05:53 37° E 19:09:11 18° NE
ASTRO E2 3.1 19:04:53 10° SW 19:08:40 46° SSE 19:09:54 34° ESE
OAO 1 Rocket 4.4 19:04:15 10° WSW 19:09:36 89° S 19:12:21 30° ENE
Cosmos 1553 Rocket 3.9 19:03:23 10° S 19:09:45 74° E 19:16:04 10° N
Cosmos 1400 Rocket 3.4 19:09:45 10° SSW 19:13:50 61° W 19:17:55 10° N
Cosmos 1455 3.9 19:12:57 10° SSE 19:14:10 19° SSE 19:14:10 19° SSE
Okean-O 2.5 19:13:39 10° SSE 19:18:04 83° ENE 19:22:31 10° N
Cosmos 2219 3.7 19:17:08 10° N 19:22:30 39° ENE 19:23:22 36° E
Delta 2 Rocket 4.3 19:20:44 10° WNW 19:26:06 58° N 19:27:52 40° ENE
Atlas Centaur 2 3.2 19:19:00 10° WSW 19:27:26 65° SSE 19:31:14 35° E
SL-08 ROCKET BODY 4.3 19:28:01 10° N 19:34:05 65° E 19:40:12 10° SSE
Cosmos 2369 3.7 19:30:14 10° S 19:35:50 60° ESE 19:37:34 42° NE
GPS 2-04 Rocket1 3.7 19:35:27 10° SW 19:38:37 37° S 19:38:37 37° S
Meteor 2-1 Rocket 4.0 19:33:51 10° S 19:39:23 84° E 19:44:54 10° N
OAO 3 Rocket 3.1 19:35:41 10° WNW 19:40:25 66° NNE 19:40:37 65° NNE
Cosmos 1315 Rocket 3.9 19:37:16 10° S 19:39:31 33° S 19:39:31 33° S
Meteor 2-15 Rocket 4.3 19:35:23 10° S 19:41:31 83° E 19:47:41 10° N
Cosmos 1745 Rocket 3.9 19:37:37 10° N 19:43:54 68° E 19:50:12 10° SSE
CZ-2C R/B 3.4 19:38:11 10° S 19:43:59 77° WSW 19:49:47 10° NNW
SL-08 R/B 4.5 19:39:06 10° N 19:45:15 81° W 19:51:21 10° S
Cosmos 44 Rocket 4.4 19:44:40 10° S 19:47:04 29° S 19:47:04 29° S
ARGOS 3.6 19:50:40 46° NNE 19:50:40 46° NNE 19:54:40 10° N
IUS-26 SRM-1 4.5 19:47:42 10° WSW 19:49:36 21° SW 19:49:36 21° SW
SeaSat 1 3.9 19:54:42 25° N 19:54:42 25° N 19:56:56 10° N
Meteor 2-10 Rocket 4.0 19:47:08 10° SSW 19:52:33 60° W 19:57:45 10° N
Hubble Space Telescope 3.0 19:52:15 10° WSW 19:55:02 17° SSW 19:55:11 17° SSW
NOSS 3-3 (A) 4.2 19:53:15 10° SW 19:58:47 61° WNW 20:01:35 31° N
NOSS 3-3 (C) 4.2 19:53:19 10° SW 19:58:54 62° WNW 20:01:43 32° N
Cosmos 2227 Rocket 2.8 19:55:04 10° NNW 19:59:01 44° N 19:59:01 44° N
CSL-04 Rocket 3.8 19:57:40 15° S 20:02:20 73° WSW 20:07:53 10° NNW
Cosmos 1386 Rocket 4.4 19:57:32 10° N 20:03:57 86° W 20:10:16 10° S
OAO 2 Rocket 3.8 20:01:34 10° W 20:05:36 54° WNW 20:05:36 54° WNW
Cosmos 1697 Rocket 3.4 20:07:12 10° SW 20:12:37 51° WNW 20:14:44 34° NNW
GEOS 3 Rocket 4.3 20:17:54 51° NW 20:17:54 51° NW 20:21:51 10° NNW
Cosmos 1980 Rocket 3.9 20:28:15 10° SSW 20:30:24 24° SSW 20:30:24 24° SSW
H-2A R/B 3.6 20:32:21 21° SW 20:35:08 33° W 20:39:59 10° NNW
Cosmos 2297 Rocket 3.5 20:35:37 10° NW 20:39:40 37° WNW 20:39:40 37° WNW
Atlas Centaur 2 4.0 21:08:49 10° W 21:13:51 40° W 21:13:51 40° W
Milstar 3 4.5 21:22:51 10° W 21:25:28 26° W 21:25:28 26° W
